This demonstration page uses our WeatherBlox Daily Observations layout. Learn more.

Left ArrowRight Arrow

Hourly Observations for September 12, 2021

Temp ( °F °C ) Dew Point ( °F °C ) Humidity (%) Winds ( mph kmh ) Pressure ( in mb ) Visibility ( mi km ) Precip ( " mm )
12:15 am 00:15 Clear 64 18 63 17 94 94 S 7 11 30.17 1022 10 16 N/A
12:35 am 00:35 Clear 64 18 63 17 94 94 SSW 5 7 30.17 1022 10 16 N/A
12:55 am 00:55 Clear 64 18 63 17 94 94 S 5 7 30.17 1022 10 16 N/A
1:15 am 01:15 Clear 64 18 61 16 88 88 SSW 5 7 30.17 1022 10 16 N/A
1:35 am 01:35 Clear 63 17 61 16 94 94 SSW 3 6 30.18 1022 10 16 N/A
1:55 am 01:55 Clear 63 17 61 16 94 94 S 3 6 30.18 1022 10 16 N/A
2:15 am 02:15 Clear 63 17 61 16 94 94 N N/A 30.18 1022 10 16 N/A
2:35 am 02:35 Clear 63 17 61 16 94 94 N N/A 30.18 1022 10 16 N/A
2:55 am 02:55 Clear 63 17 61 16 94 94 N N/A 30.18 1022 10 16 N/A
3:15 am 03:15 Clear 63 17 61 16 94 94 N N/A 30.18 1022 10 16 N/A
3:35 am 03:35 Clear 63 17 61 16 94 94 N N/A 30.18 1022 10 16 N/A
3:55 am 03:55 Clear 61 16 61 16 100 100 N N/A 30.18 1022 10 16 N/A
4:15 am 04:15 Clear 61 16 61 16 100 100 N N/A 30.18 1022 10 16 N/A
4:35 am 04:35 Clear 61 16 61 16 100 100 N N/A 30.18 1022 10 16 N/A
4:55 am 04:55 Clear 61 16 61 16 100 100 N N/A 30.18 1022 10 16 N/A
5:15 am 05:15 Clear 59 15 59 15 100 100 SW 3 6 30.18 1022 10 16 N/A
5:35 am 05:35 Clear 61 16 61 16 100 100 N N/A 30.18 1022 10 16 N/A
5:55 am 05:55 Clear 61 16 61 16 100 100 N N/A 30.18 1022 10 16 N/A
6:15 am 06:15 Clear 61 16 61 16 100 100 N N/A 30.18 1022 10 16 N/A
6:35 am 06:35 Clear 61 16 61 16 100 100 N N/A 30.18 1022 10 16 N/A
6:55 am 06:55 Sunny 61 16 61 16 100 100 S 3 6 30.19 1022 10 16 N/A
7:15 am 07:15 Sunny 61 16 61 16 100 100 SSW 5 7 30.19 1022 10 16 N/A
7:35 am 07:35 Sunny 61 16 61 16 100 100 N N/A 30.19 1022 10 16 N/A
7:55 am 07:55 Sunny 61 16 61 16 100 100 N N/A 30.19 1022 10 16 N/A
8:15 am 08:15 Sunny 63 17 61 16 94 94 N N/A 30.19 1022 10 16 N/A
8:35 am 08:35 Sunny 63 17 63 17 100 100 N N/A 30.19 1022 10 16 N/A
8:55 am 08:55 Sunny 64 18 63 17 94 94 N N/A 30.18 1022 10 16 N/A
9:15 am 09:15 Sunny 66 19 63 17 88 88 SSW 3 6 30.18 1022 10 16 N/A
9:35 am 09:35 Sunny 68 20 64 18 88 88 SW 3 6 30.18 1022 10 16 N/A
9:55 am 09:55 Sunny 70 21 64 18 83 83 S 5 7 30.17 1022 10 16 N/A
10:15 am 10:15 Sunny 72 22 64 18 78 78 S 3 6 30.17 1022 10 16 N/A
10:35 am 10:35 Sunny 75 24 64 18 69 69 S 8 13 30.17 1022 10 16 N/A
10:55 am 10:55 Sunny 77 25 66 19 69 69 SSW 7 11 30.16 1021 10 16 N/A
11:15 am 11:15 Sunny 79 26 66 19 65 65 S 10 17 30.16 1021 10 16 N/A
11:35 am 11:35 Sunny 79 26 66 19 65 65 S 7 11 30.16 1021 10 16 N/A
11:55 am 11:55 Sunny 81 27 68 20 66 66 S 10 17 30.15 1021 10 16 N/A
12:15 pm 12:15 Sunny 82 28 68 20 62 62 S 8 13 30.15 1021 10 16 N/A
12:35 pm 12:35 Sunny 82 28 66 19 58 58 SSW 12 19 30.14 1021 10 16 N/A
12:55 pm 12:55 Sunny 84 29 66 19 55 55 S 12 19 30.13 1020 10 16 N/A
1:15 pm 13:15 Sunny 84 29 64 18 51 51 S 12 19 30.13 1020 10 16 N/A
1:35 pm 13:35 Sunny 86 30 64 18 49 49 SSW 14 22 30.13 1020 10 16 N/A
1:55 pm 13:55 Sunny 86 30 64 18 49 49 SSW 13 20 30.12 1020 10 16 N/A
2:15 pm 14:15 Sunny 86 30 66 19 52 52 SSW 14 22 30.12 1020 10 16 N/A
2:35 pm 14:35 Sunny 86 30 66 19 52 52 SW 12 19 30.11 1020 10 16 N/A
2:55 pm 14:55 Sunny 88 31 66 19 49 49 SW 12 19 30.10 1019 10 16 N/A
3:15 pm 15:15 Sunny 86 30 68 20 55 55 SW 10 17 30.10 1019 10 16 N/A
3:35 pm 15:35 Sunny 88 31 68 20 52 52 SW 10 17 30.09 1019 10 16 N/A
3:55 pm 15:55 Sunny 86 30 68 20 55 55 SW 9 15 30.08 1019 10 16 N/A
4:15 pm 16:15 Sunny 86 30 68 20 55 55 SW 8 13 30.08 1019 10 16 N/A
4:35 pm 16:35 Sunny 86 30 68 20 55 55 SSW 9 15 30.08 1019 10 16 N/A
4:55 pm 16:55 Sunny 86 30 68 20 55 55 SW 9 15 30.08 1019 10 16 N/A
5:15 pm 17:15 Sunny 84 29 68 20 58 58 SSW 8 13 30.08 1019 10 16 N/A
5:35 pm 17:35 Sunny 84 29 68 20 58 58 SSW 7 11 30.08 1019 10 16 N/A
5:55 pm 17:55 Sunny 82 28 70 21 66 66 SSW 6 9 30.08 1019 10 16 N/A
6:15 pm 18:15 Sunny 82 28 70 21 66 66 SSW 7 11 30.07 1018 10 16 N/A
6:35 pm 18:35 Sunny 82 28 70 21 66 66 SW 6 9 30.07 1018 10 16 N/A
6:55 pm 18:55 Sunny 81 27 70 21 70 70 SW 5 7 30.07 1018 10 16 N/A
7:15 pm 19:15 Sunny 81 27 70 21 70 70 SSW 5 7 30.07 1018 10 16 N/A
7:35 pm 19:35 Clear 79 26 70 21 74 74 SSW 5 7 30.07 1018 10 16 N/A
7:55 pm 19:55 Clear 79 26 70 21 74 74 SW 5 7 30.07 1018 10 16 N/A
8:15 pm 20:15 Clear 77 25 70 21 79 79 SSW 5 7 30.07 1018 10 16 N/A
8:35 pm 20:35 Clear 77 25 70 21 79 79 SW 3 6 30.07 1018 10 16 N/A
8:55 pm 20:55 Clear 77 25 70 21 79 79 SSW 6 9 30.07 1018 10 16 N/A
9:15 pm 21:15 Clear 75 24 70 21 83 83 SW 3 6 30.09 1019 10 16 N/A
9:35 pm 21:35 Clear 73 23 70 21 89 89 SSW 3 6 30.08 1019 10 16 N/A
9:55 pm 21:55 Clear 73 23 70 21 89 89 SSW 5 7 30.09 1019 10 16 N/A
10:15 pm 22:15 Clear 73 23 70 21 89 89 S 5 7 30.08 1019 10 16 N/A
10:35 pm 22:35 Clear 73 23 70 21 89 89 SSW 5 7 30.09 1019 10 16 N/A
10:55 pm 22:55 Clear 72 22 70 21 94 94 N N/A 30.09 1019 10 16 N/A
11:15 pm 23:15 Clear 72 22 68 20 88 88 N N/A 30.09 1019 10 16 N/A
11:35 pm 23:35 Clear 70 21 68 20 94 94 W 6 9 30.10 1019 10 16 N/A
11:55 pm 23:55 Clear 70 21 68 20 94 94 W 5 7 30.10 1019 10 16 N/A

Powered by AerisWeather